Theta_e
315 316 315 316 315 316 321 325 324 326 327 323 322 321 322 322 322 323 323 322 323 322 320 320 321 321 321 321 320 321 321 321 322 321 324 326 320 321 321 320 321 320 320 318 320 324 326 326 326 326 325 325 326 327 328 328 328 329 329 329 328 328 328 326 325 325 324 324 324 324 323 322 321 321 321 322 323 324 323 321 321 321 323 325 328 332 332 332 331 331 330 329 332 333 332 331 330
314 314 314 315 316 319 322 322 322 323 324 321 320 321 322 321 323 323 322 322 322 322 320 320 321 321 320 321 320 321 322 321 322 321 323 323 321 324 321 321 321 320 321 320 319 321 325 326 325 325 326 325 325 326 328 328 329 329 329 328 327 326 325 325 325 325 325 324 323 323 322 323 323 324 325 326 327 328 326 323 322 323 325 327 329 332 333 332 332 331 328 328 330 331 332 333 332
314 313 316 320 321 323 323 322 324 323 321 319 318 322 322 321 322 322 321 321 322 321 320 320 322 321 320 321 321 322 322 322 322 320 323 325 325 324 321 321 321 321 321 321 319 318 321 324 325 325 325 326 325 325 327 328 329 330 329 327 326 325 325 324 324 324 323 322 323 324 325 328 329 330 330 330 329 329 327 326 325 326 328 330 330 331 333 333 331 329 325 325 329 330 332 333 333
314 313 317 322 322 324 326 325 326 323 320 319 318 321 322 321 322 321 321 321 321 321 321 321 322 322 321 321 321 321 321 321 321 320 324 326 323 320 319 321 321 321 321 321 320 317 317 319 323 324 324 325 325 325 326 327 329 330 329 328 327 326 325 324 324 322 322 323 324 325 328 331 332 332 332 332 330 328 327 328 329 329 330 330 330 331 332 332 329 326 322 321 325 329 331 332 331
314 314 316 322 324 324 326 323 323 321 319 320 319 321 322 320 321 320 321 321 321 321 321 321 322 322 321 321 321 320 321 320 321 321 321 321 319 318 318 320 321 321 321 321 321 319 316 316 318 320 321 323 324 325 325 326 328 330 330 329 328 327 326 325 325 322 322 325 326 327 330 332 333 333 333 333 330 329 327 328 331 331 331 331 331 331 330 329 328 325 322 319 320 325 329 329 328
320 321 317 321 324 323 323 321 321 321 321 323 321 321 321 319 320 320 321 321 322 322 321 321 321 321 321 321 321 320 320 320 320 319 319 318 318 317 317 318 321 322 321 321 321 320 317 316 315 316 317 317 320 322 324 325 327 329 330 330 329 328 327 328 326 323 323 325 326 329 331 333 333 333 334 333 329 328 329 329 330 330 329 329 330 329 328 326 326 324 320 316 315 318 321 323 322
324 326 322 321 323 320 321 321 322 322 322 323 321 320 320 319 320 320 321 321 322 321 321 321 321 321 321 321 321 321 320 319 318 318 318 317 317 317 316 317 319 322 322 320 320 320 318 317 315 315 314 314 314 316 319 321 324 327 329 330 330 330 329 330 328 325 324 325 327 330 332 333 333 334 334 331 326 326 328 329 328 328 328 327 328 327 327 326 324 320 315 313 312 313 315 315 314
323 324 322 322 324 323 323 323 323 323 322 322 321 320 320 319 320 321 321 321 322 322 321 321 320 320 321 321 321 321 321 320 318 317 317 317 317 317 317 316 317 321 322 321 320 321 320 318 316 315 314 314 313 313 314 316 319 323 326 329 330 330 329 329 328 326 326 327 329 331 332 333 333 334 333 329 325 326 326 327 327 327 327 325 325 324 325 325 323 317 312 310 310 311 311 310 310
322 322 321 322 325 325 325 325 325 324 323 322 321 320 320 320 320 321 321 321 322 322 322 321 320 320 321 320 320 321 321 320 319 317 317 317 317 317 317 316 316 319 321 322 320 321 321 319 317 315 314 314 314 313 313 313 315 318 321 325 328 329 329 328 327 326 326 327 329 331 333 333 333 333 332 328 326 327 325 325 326 325 325 324 322 320 319 321 321 317 310 307 307 308 308 307 306
322 322 322 323 325 323 323 324 324 323 323 322 321 320 320 320 320 321 321 321 321 321 321 321 321 320 320 320 320 322 322 321 319 318 317 317 316 317 317 316 316 317 320 321 321 321 321 320 318 316 315 314 314 313 313 313 314 315 316 320 323 325 327 327 326 326 326 327 328 330 334 334 332 332 331 328 328 326 323 322 323 324 322 320 319 315 314 314 315 313 307 304 305 305 305 304 304
325 322 320 323 323 321 321 322 322 323 322 321 321 320 320 320 320 320 321 321 321 321 321 321 320 320 320 320 320 322 322 321 320 318 317 317 317 316 317 316 316 316 318 321 322 322 321 321 319 317 315 314 314 314 314 314 314 314 314 315 317 320 322 323 324 326 326 326 326 330 334 334 332 331 330 328 327 323 319 318 318 319 317 313 313 312 309 308 308 307 304 304 304 304 304 304 303
326 325 322 323 323 322 322 321 322 323 323 321 320 320 319 320 320 320 320 320 320 320 320 321 320 320 320 319 320 322 322 321 319 318 317 317 317 317 316 316 316 316 317 319 321 321 321 322 321 318 316 314 314 314 314 314 314 314 314 314 315 316 318 320 322 324 324 324 325 329 333 333 332 330 329 326 322 318 316 314 313 313 312 310 309 307 305 304 304 304 304 304 304 304 303 303 303
325 325 325 324 323 323 324 322 322 323 323 321 320 319 318 319 320 320 320 319 319 319 320 320 320 319 319 319 318 319 319 320 319 318 317 317 317 316 316 316 316 316 317 317 319 320 320 321 322 320 318 315 314 314 314 314 315 315 315 315 315 315 316 318 320 321 323 326 325 328 331 330 329 327 325 322 317 316 315 312 311 310 309 308 306 305 304 304 304 304 303 304 304 303 303 303 304
323 323 324 325 324 323 323 323 323 322 322 320 319 319 318 318 319 320 319 318 318 319 320 319 319 318 318 318 319 320 319 319 319 318 317 317 317 316 316 316 316 316 316 316 317 319 320 320 321 321 320 317 315 314 315 314 314 315 315 316 316 315 315 316 317 319 323 328 326 326 327 326 324 322 319 316 314 315 313 310 309 308 306 305 305 304 304 304 304 304 304 304 303 303 303 304 304
321 322 324 323 323 323 323 324 324 322 321 320 319 318 318 318 318 319 318 317 318 318 318 318 318 318 318 318 320 321 320 319 319 318 318 317 316 316 316 316 316 316 316 316 316 318 319 319 320 321 321 319 317 316 315 315 314 314 315 316 317 316 315 315 316 319 324 328 327 325 323 323 321 318 315 313 312 312 312 310 308 306 305 304 305 304 304 304 304 304 304 303 303 303 304 305 306
320 322 324 323 323 323 322 324 324 322 322 320 319 319 318 318 318 318 318 318 318 318 317 318 318 318 318 317 318 318 318 318 318 317 317 316 316 316 316 316 316 315 316 316 316 317 317 318 319 319 320 321 319 318 316 316 315 314 314 315 316 316 316 316 316 320 326 328 327 325 322 320 319 317 315 313 311 311 311 310 307 305 304 304 305 305 304 304 304 304 304 304 304 304 305 306 306
320 321 324 323 324 323 322 323 324 321 320 320 319 319 318 319 319 318 318 318 318 318 317 318 318 318 318 318 317 317 317 317 317 316 316 316 316 315 315 315 315 316 315 315 316 316 316 317 317 318 318 319 320 319 318 317 316 315 314 314 315 315 316 317 317 319 326 328 326 324 321 319 318 317 315 313 311 310 310 308 306 304 304 304 305 305 305 305 305 305 305 304 304 305 306 306 306
320 322 323 322 323 322 322 322 322 320 319 319 318 318 318 318 318 318 318 318 318 318 318 317 318 318 318 318 318 318 318 318 317 317 316 316 316 315 315 315 315 315 315 315 315 316 316 316 316 317 317 317 318 319 318 317 317 316 315 314 314 315 315 316 316 317 322 324 322 321 320 319 318 317 315 312 311 310 309 308 306 304 304 304 305 305 305 305 305 305 305 305 305 306 306 306 306
321 323 323 323 323 322 322 321 320 320 319 318 318 318 318 317 317 318 317 317 317 317 317 317 317 318 318 319 319 319 319 319 318 318 318 317 316 316 315 315 315 315 315 315 315 315 315 316 316 316 317 317 317 317 318 318 317 316 315 315 314 315 314 314 314 315 317 319 319 319 319 320 318 316 313 312 310 309 309 307 305 304 304 304 305 305 305 306 306 306 306 305 306 306 306 306 305
321 322 322 322 322 321 321 320 320 320 320 319 318 318 317 317 317 317 317 317 317 317 317 317 317 318 318 318 318 319 319 319 319 318 318 318 317 316 315 315 315 315 315 315 315 315 315 315 316 316 316 317 317 317 317 318 318 317 316 316 315 315 314 313 312 312 313 315 316 316 317 318 317 315 312 310 309 309 308 307 305 304 304 305 305 305 305 306 306 306 306 306 306 306 306 306 305
320 321 321 321 321 320 319 319 319 320 319 319 318 318 317 317 317 317 317 318 317 317 317 317 317 317 317 317 316 317 318 318 318 318 318 317 316 315 315 314 315 314 315 315 315 315 315 315 315 315 316 316 317 317 317 317 318 318 316 316 316 315 314 313 312 311 312 312 313 313 313 314 314 313 311 309 309 308 308 307 305 304 304 305 305 305 305 306 306 306 306 306 306 306 306 306 306
320 320 320 321 320 320 319 318 319 320 319 319 318 318 317 317 317 317 318 318 317 317 317 317 317 316 316 316 317 316 316 317 317 318 318 317 315 314 314 314 314 315 315 315 314 314 314 314 315 315 315 316 316 317 317 317 318 318 317 317 316 316 315 314 313 312 312 312 312 312 312 312 312 312 311 309 309 309 308 307 305 304 305 305 305 305 306 306 306 306 305 306 306 306 306 306 306
320 320 319 320 319 318 318 318 319 319 319 318 318 318 317 317 317 317 317 317 317 317 317 317 317 317 317 317 317 317 317 317 317 317 317 316 315 314 314 314 314 314 315 314 314 314 314 314 314 314 314 315 315 316 317 317 318 318 318 317 317 317 316 315 314 314 313 312 312 312 312 312 312 312 312 310 309 309 308 307 305 304 305 305 305 305 306 306 306 305 305 306 306 306 306 306 306
319 320 320 319 319 317 317 317 318 319 318 318 318 318 317 316 316 316 316 317 317 317 317 317 317 317 317 317 317 317 317 317 317 317 316 316 315 315 314 314 314 314 315 314 314 314 314 314 314 314 314 314 315 316 316 317 318 318 319 318 318 318 317 317 316 315 314 313 312 312 312 313 313 313 312 312 310 309 308 308 305 304 304 305 305 305 306 306 306 306 305 305 305 305 305 305 306
317 319 319 319 318 318 318 318 318 318 318 317 317 317 317 317 316 316 316 316 316 316 316 316 316 316 317 317 317 317 317 317 317 316 316 315 315 315 314 314 314 314 314 314 314 314 314 314 314 314 314 314 314 315 315 316 317 318 318 318 319 318 318 318 318 317 316 315 314 313 313 313 313 313 313 313 312 310 309 308 306 304 304 305 305 305 306 306 306 305 305 305 306 305 305 305 305
317 317 317 317 317 317 317 317 317 317 317 316 317 317 317 317 316 316 316 316 316 316 316 316 317 317 317 317 317 316 316 316 316 316 315 316 315 315 315 315 315 315 315 315 314 314 314 314 314 314 314 314 314 314 314 315 316 317 317 318 318 318 319 319 319 319 319 318 317 316 314 313 313 313 313 313 313 311 309 308 306 304 304 305 305 305 306 307 306 306 305 305 305 305 305 305 305
317 316 316 316 315 316 316 315 315 315 315 315 316 316 317 317 316 316 316 316 316 316 316 316 316 317 316 316 316 316 316 316 316 316 316 316 316 315 315 315 315 315 315 315 315 315 314 314 314 314 313 313 314 314 314 314 315 315 316 317 318 318 319 319 320 321 321 320 320 319 316 315 314 314 314 313 313 312 309 308 306 305 304 305 305 305 305 306 306 305 305 305 305 305 305 305 305
316 315 315 315 315 315 315 315 315 315 315 316 316 316 316 316 316 316 316 316 316 316 316 316 316 316 316 316 316 316 316 316 316 316 316 316 316 315 315 315 315 315 314 315 314 314 314 314 314 314 314 313 313 313 314 314 314 314 315 316 317 318 319 319 320 321 321 321 322 321 319 317 316 315 314 314 313 312 310 308 307 305 304 304 305 305 305 306 305 305 304 304 304 304 304 304 304
315 314 314 314 314 314 315 315 315 315 315 316 316 315 316 315 315 316 316 316 316 316 316 316 316 316 316 316 316 316 315 315 315 316 316 316 316 316 316 316 315 315 315 314 314 314 314 314 314 313 313 313 313 313 313 313 314 314 315 315 316 317 318 318 319 320 320 320 321 322 321 319 317 316 315 314 314 313 311 308 307 306 305 304 304 304 305 305 305 304 304 304 304 304 304 304 304
314 314 314 314 315 315 316 316 317 316 316 316 315 315 316 316 316 316 317 317 316 316 316 316 317 316 316 315 315 315 315 315 315 315 316 315 316 316 316 315 315 315 314 314 314 314 315 314 314 313 313 313 313 313 313 314 314 314 315 316 317 317 318 318 318 319 319 319 319 320 321 320 318 317 316 315 314 313 311 309 308 307 306 304 304 304 304 304 304 304 304 304 304 304 304 304 304
314 314 315 316 316 316 317 317 317 316 315 315 315 315 315 315 317 317 317 317 316 316 316 316 316 316 316 315 315 315 315 315 315 315 315 315 315 315 315 314 314 314 314 313 313 313 314 314 314 313 313 313 313 313 314 314 314 315 316 316 318 318 319 319 319 320 320 319 319 319 320 320 319 318 317 316 315 314 312 310 309 308 307 305 304 303 304 304 304 304 304 304 304 304 304 304 303
315 316 316 318 317 317 318 319 317 316 315 313 315 315 315 315 317 317 317 317 316 316 316 316 316 315 316 315 315 315 315 315 316 315 315 315 315 315 314 314 313 313 313 313 313 313 313 314 313 312 312 312 313 313 314 314 315 315 317 318 319 319 320 321 321 321 321 320 320 320 320 320 320 319 318 317 316 315 313 311 310 309 308 306 304 303 303 303 303 303 303 303 303 303 304 303 303
317 316 317 319 319 318 319 320 317 316 315 313 314 316 316 316 317 317 317 316 316 315 315 316 316 315 315 315 315 315 316 315 315 315 315 315 315 314 314 313 313 313 313 313 312 312 313 313 313 312 311 311 311 312 312 314 315 316 317 318 320 321 321 322 323 322 322 322 321 321 321 321 320 320 319 318 318 317 315 313 311 310 308 307 305 303 303 303 303 303 303 303 303 303 303 303 303
319 319 319 320 320 319 319 320 319 317 316 315 315 314 315 315 315 315 316 316 316 315 315 315 315 315 315 315 315 316 316 315 315 314 314 314 313 313 312 312 312 311 311 312 312 312 312 313 313 313 312 311 310 311 311 312 314 317 318 319 320 321 322 322 323 323 323 323 323 322 322 321 321 321 320 319 319 318 317 315 313 311 309 308 306 304 303 302 302 302 302 302 303 302 303 303 303
320 321 320 320 320 319 318 319 319 319 318 318 317 315 316 316 316 316 316 316 316 315 315 315 315 315 315 315 316 316 315 314 313 313 313 312 312 311 311 311 310 310 310 310 310 311 311 312 312 312 311 310 309 310 310 311 312 315 317 318 319 321 322 322 322 323 323 323 323 323 322 322 321 321 320 320 319 319 318 316 314 312 310 308 307 306 303 302 302 302 301 302 302 302 302 302 302
319 319 319 319 318 318 318 318 318 319 318 318 318 318 317 317 316 316 316 316 315 315 315 315 316 315 316 316 316 315 314 312 312 311 311 311 311 310 310 310 310 310 310 309 309 310 310 310 311 311 310 309 309 309 309 309 310 311 312 313 315 317 319 320 321 322 322 322 322 322 322 322 321 321 321 320 319 319 318 317 316 314 311 309 307 307 305 303 302 302 301 301 301 301 301 301 301
318 319 319 319 319 318 318 318 318 318 318 318 318 318 317 316 316 315 315 315 315 315 315 315 316 316 316 316 315 314 312 311 311 310 310 310 310 310 310 310 310 310 310 309 309 309 309 310 310 311 310 309 309 310 310 309 309 309 309 310 311 312 314 316 318 319 320 321 321 321 321 321 321 320 320 319 318 319 319 318 317 315 313 311 308 307 306 304 302 301 301 301 301 301 301 301 301
318 319 319 319 319 318 317 318 318 317 317 317 317 317 316 316 315 315 315 315 315 315 315 316 316 316 316 316 315 313 311 310 310 309 309 309 309 310 310 310 310 311 310 310 310 309 309 309 309 310 310 309 309 311 311 310 310 310 310 311 311 311 312 314 315 316 317 319 319 319 319 319 319 319 318 317 317 318 319 318 318 317 315 313 310 308 306 304 302 301 301 300 300 300 300 300 300
319 319 319 319 318 318 317 318 318 316 316 316 316 316 315 315 315 315 315 315 316 316 316 317 317 315 315 315 313 311 310 310 309 309 309 309 309 310 310 310 310 310 310 310 310 309 309 309 309 309 309 308 308 309 310 310 311 311 311 312 313 312 313 313 314 314 314 315 315 315 316 316 316 315 315 315 315 317 318 318 318 318 317 315 312 309 307 305 303 301 300 300 300 300 299 299 300
319 319 319 318 318 319 319 318 318 316 315 316 316 316 315 315 315 316 316 316 316 317 316 316 315 314 313 312 311 310 309 308 308 308 309 309 310 310 310 310 310 310 310 310 310 310 310 309 309 308 308 308 308 308 308 308 309 308 308 309 310 310 311 311 311 310 311 311 312 312 312 313 313 312 312 312 314 315 316 317 317 318 318 317 316 313 309 307 305 303 301 300 300 299 299 299 299
319 320 319 318 318 319 319 318 317 316 316 317 317 318 318 318 318 318 317 317 317 316 315 315 314 312 312 311 310 309 308 307 307 307 308 309 309 310 310 310 310 310 310 310 310 310 310 310 309 309 308 308 308 308 307 307 307 307 307 307 307 307 308 308 308 308 308 308 308 309 309 309 309 309 309 310 311 312 313 314 315 316 317 317 317 316 314 310 307 304 302 301 300 299 299 299 299
318 320 321 320 319 320 320 319 319 317 317 318 318 320 320 319 321 321 319 319 318 316 314 314 313 311 311 310 309 307 306 306 306 306 307 308 308 309 309 309 310 310 310 310 310 310 310 310 310 309 309 308 308 308 308 308 308 307 307 307 307 307 307 307 308 308 307 307 307 306 306 306 306 306 306 307 307 308 309 311 312 314 315 316 316 316 316 314 310 307 303 301 300 300 299 298 298
318 321 323 322 319 320 320 319 320 318 317 317 317 319 319 319 320 320 319 320 317 315 314 312 311 311 310 309 308 306 305 305 305 305 306 307 308 308 309 309 309 310 310 310 310 310 310 310 310 310 309 309 308 308 308 308 308 307 307 307 307 307 306 307 307 307 307 306 306 306 305 305 305 305 305 305 305 305 306 307 309 311 312 313 314 315 315 315 313 311 307 303 301 300 298 298 298
320 320 321 320 318 319 319 317 318 318 316 316 317 318 318 319 320 319 320 319 316 313 312 311 310 310 308 307 306 305 305 304 305 305 305 306 307 308 308 308 308 309 309 309 310 309 309 309 309 309 309 309 308 308 308 308 307 307 307 307 307 307 306 306 306 306 306 305 305 305 304 304 304 304 304 304 304 304 305 305 306 307 309 310 312 312 313 314 313 312 308 304 301 299 298 298 298
321 318 316 317 316 316 316 317 317 317 317 318 319 319 320 321 321 320 321 319 314 313 312 310 310 309 308 306 305 304 304 304 305 305 305 305 306 307 307 307 308 308 309 309 309 309 308 308 309 309 309 308 308 308 308 307 307 306 306 306 306 306 306 306 306 306 305 305 305 305 304 304 304 304 304 304 304 304 304 304 304 304 305 307 308 310 311 312 312 311 309 306 302 300 298 297 297
317 316 316 316 316 317 317 317 317 316 318 319 320 320 321 324 324 322 323 318 314 313 312 310 310 308 307 306 304 303 302 303 304 304 305 305 305 306 306 307 307 307 308 308 308 308 308 308 308 308 308 308 307 307 307 307 307 306 306 306 306 306 305 305 305 305 305 305 304 304 304 304 303 303 303 303 303 303 303 303 303 303 303 303 305 307 308 309 310 310 309 307 305 301 299 298 297
314 315 317 317 318 318 317 317 316 317 321 321 320 320 320 324 326 321 319 317 314 313 311 310 309 307 306 305 303 303 301 301 302 303 303 304 305 305 305 306 306 306 307 307 307 307 307 307 307 307 307 307 306 306 306 306 306 306 306 306 306 306 305 304 304 304 304 304 303 303 303 303 303 303 303 303 303 303 302 302 302 302 302 302 302 303 305 306 307 308 308 307 305 303 300 299 297
313 315 315 317 321 319 317 318 316 318 323 321 319 321 320 324 327 320 317 316 313 313 311 310 308 306 305 304 302 302 301 300 300 301 302 303 304 304 304 305 305 305 306 306 306 306 306 306 306 307 306 306 306 305 305 305 305 305 305 306 306 306 305 305 304 304 303 303 303 302 302 302 302 302 302 302 302 302 302 302 302 302 302 301 301 301 302 303 304 305 306 306 305 303 301 299 298
313 314 314 318 323 320 319 321 320 322 323 318 317 321 322 322 321 318 318 316 313 312 311 309 307 305 304 303 302 301 300 299 300 300 301 302 303 303 304 304 304 305 305 305 305 305 305 305 305 305 305 305 305 305 305 305 304 305 305 305 305 305 305 305 305 304 304 303 303 303 302 302 302 302 302 301 301 302 302 302 302 301 301 301 301 301 300 301 301 302 303 304 303 302 301 300 299
313 316 318 320 321 318 318 320 320 321 321 318 316 318 320 321 319 316 315 313 311 311 310 308 306 304 303 302 301 300 299 299 300 301 301 302 302 302 302 303 303 303 303 304 304 303 304 304 304 304 304 304 304 304 304 305 304 304 304 304 304 304 304 304 304 304 304 304 304 303 303 302 302 302 301 301 301 301 301 302 302 302 301 301 301 301 300 300 300 300 300 301 302 301 301 300 299
314 317 320 321 319 318 318 318 319 320 320 319 318 318 320 320 319 315 311 309 309 308 307 306 305 303 302 301 300 299 298 298 299 299 300 300 300 300 300 300 300 300 300 300 301 301 301 302 302 302 302 303 303 303 304 304 304 304 304 304 304 304 303 303 303 303 303 303 303 303 303 303 303 302 302 301 301 300 300 300 300 301 301 301 301 301 301 301 300 300 299 299 300 300 300 299 299
317 316 319 320 320 319 319 320 320 320 320 318 317 320 319 317 317 315 310 308 307 306 305 304 303 303 301 300 299 299 298 298 298 298 298 299 299 299 299 299 299 299 299 298 298 298 299 299 300 300 300 301 301 301 302 302 303 303 303 304 303 303 303 302 301 301 301 301 302 302 303 303 303 303 303 302 301 301 300 300 300 300 300 300 300 301 301 301 300 300 299 299 299 299 299 299 298
318 317 320 320 319 319 319 320 319 319 320 318 317 319 317 315 317 315 311 308 307 306 305 304 303 302 301 300 299 298 298 298 298 298 298 299 299 299 298 298 298 297 297 297 297 297 297 297 298 298 298 298 298 299 299 299 300 300 301 301 302 302 301 301 300 300 300 300 300 301 301 302 302 303 303 303 302 302 301 300 300 300 300 300 300 300 300 300 300 300 299 299 299 299 298 298 298
318 319 318 317 318 318 317 318 318 319 319 317 316 317 316 316 317 314 312 310 307 306 304 303 301 300 299 299 298 297 298 298 298 299 298 298 298 298 298 297 296 296 295 295 295 295 295 295 295 296 296 296 296 296 296 297 297 297 298 298 299 299 299 299 299 299 299 299 299 299 300 300 301 301 301 302 302 303 302 302 301 301 300 300 300 299 299 299 299 299 299 299 299 298 298 298 298
315 315 315 316 318 318 317 317 317 318 318 317 317 317 316 316 316 315 314 311 307 305 304 302 301 300 299 298 298 299 299 299 299 298 298 297 297 297 297 296 296 295 295 294 294 294 294 294 294 294 294 294 294 295 295 295 295 295 296 296 296 297 297 297 298 298 298 298 298 298 299 299 299 299 300 300 300 301 302 302 302 302 301 300 300 299 298 298 298 299 299 299 299 298 298 298 297
312 311 313 316 317 317 317 317 317 318 317 317 317 316 316 315 313 312 311 309 307 305 303 302 301 300 299 299 299 300 300 299 299 298 298 297 297 297 297 296 296 295 295 294 294 293 293 293 293 293 293 293 293 293 293 294 294 293 294 294 294 295 295 295 296 297 297 297 298 298 298 298 298 298 298 298 298 299 300 300 301 301 301 300 300 299 298 298 298 298 298 298 299 298 298 298 298
314 314 314 314 315 316 316 315 316 317 316 317 316 316 317 313 309 308 307 306 306 304 302 301 300 300 300 299 300 300 299 299 298 298 297 297 297 297 296 296 295 294 294 293 293 292 292 292 292 292 292 292 292 292 292 292 292 292 292 292 292 292 293 293 294 294 295 296 296 297 297 297 297 297 297 297 297 297 297 298 299 300 300 300 300 300 299 298 297 297 297 297 298 298 298 298 298
316 316 315 314 315 317 316 315 316 316 315 317 316 316 317 311 306 305 305 304 304 302 301 300 299 299 300 300 300 299 298 298 297 297 296 296 296 295 295 294 293 292 292 292 292 292 292 292 292 292 292 292 291 291 291 291 291 291 291 291 290 290 290 290 291 291 292 293 294 294 294 295 295 295 295 296 296 296 296 296 297 297 298 299 300 300 299 298 297 297 296 296 296 297 297 298 298
Wind_Speed
10 10 10 9 10 10 8 5 4 2 2 4 3 2 2 0 1 1 6 6 4 4 7 4 4 4 5 4 4 8 8 5 4 3 0 1 3 6 4 0 3 3 6 6 9 14 16 18 18 18 17 17 18 17 17 16 16 15 13 12 12 12 12 13 12 12 11 10 9 8 7 6 6 5 4 4 4 3 3 2 2 2 3 3 2 3 3 3 3 4 4 4 5 3 1 1 1
9 8 7 6 7 6 6 4 2 2 2 2 2 4 1 1 2 4 6 5 4 3 7 5 4 4 4 6 7 8 7 5 5 4 1 2 5 4 4 1 3 3 6 6 6 13 16 18 18 19 18 18 18 18 17 16 16 15 14 14 14 14 14 14 13 12 11 10 9 8 6 4 5 5 4 4 4 3 3 3 2 2 2 3 2 3 3 3 4 5 6 5 5 4 2 3 3
6 6 4 4 6 4 5 3 1 3 4 2 3 3 3 2 4 5 5 6 3 4 6 5 4 3 3 5 5 4 4 2 1 3 2 1 3 3 4 3 5 5 6 5 5 11 15 17 19 19 18 18 18 18 18 17 17 16 15 15 15 15 15 15 14 13 12 10 8 6 4 4 4 4 4 5 5 4 4 4 3 3 3 3 3 3 3 4 5 8 8 5 4 3 3 4 5
4 3 3 1 5 4 3 1 2 3 4 3 2 3 3 3 4 4 6 5 0 3 3 4 3 1 2 4 4 4 4 4 1 2 1 3 5 5 5 4 6 7 8 6 5 9 13 16 18 18 18 18 18 19 19 18 18 17 17 17 17 17 16 16 15 14 12 10 7 5 4 5 5 5 6 7 7 6 5 5 5 5 4 4 4 4 4 5 8 10 10 7 5 4 4 4 6
4 4 4 1 3 2 1 2 2 2 3 2 2 1 4 4 5 5 5 3 2 1 2 3 2 1 3 5 4 3 3 4 3 4 3 8 9 6 5 4 7 9 9 9 7 9 11 13 16 18 18 18 19 19 19 19 19 19 19 18 18 18 18 16 15 15 12 9 8 7 6 7 7 8 8 9 8 7 6 6 6 6 6 5 6 7 8 9 11 12 11 9 7 6 6 6 7
6 5 3 1 2 3 1 2 3 3 2 2 2 3 5 4 6 6 7 4 3 1 2 2 3 4 4 5 5 4 3 3 5 6 6 8 8 7 5 5 7 10 10 11 10 9 11 13 15 16 17 18 18 19 19 19 20 20 20 20 20 19 19 17 16 14 12 10 9 8 8 9 9 10 10 10 9 8 6 7 7 7 8 8 8 10 10 11 11 12 12 11 9 8 8 9 9
4 3 1 0 2 2 1 3 4 4 0 3 2 3 5 5 7 7 7 4 3 2 1 2 2 5 5 3 5 6 4 5 6 5 6 7 7 8 6 7 8 10 11 12 13 11 12 13 14 16 17 18 18 18 19 19 20 21 21 21 21 20 19 18 16 14 13 11 10 10 10 11 11 12 13 13 11 9 7 7 8 9 9 9 10 10 10 10 10 11 12 11 9 9 10 10 11
4 3 2 1 1 2 2 4 5 3 1 2 2 1 3 5 6 4 4 4 2 2 2 2 1 2 4 3 4 6 5 5 5 4 4 5 5 6 6 7 8 10 11 13 15 14 13 14 15 16 17 18 18 18 18 19 19 21 21 21 21 21 20 19 17 15 14 13 12 12 13 13 13 14 16 15 12 10 10 9 10 10 10 10 11 12 11 9 9 11 12 9 8 8 10 9 9
4 4 2 2 1 1 2 5 5 3 1 2 3 3 3 4 3 2 3 5 4 2 1 3 3 2 4 7 8 6 6 5 4 5 4 4 5 5 5 6 8 10 11 12 16 16 14 14 16 17 18 18 18 18 18 18 19 19 19 20 21 21 20 19 18 17 16 15 15 15 15 15 15 16 17 16 13 12 13 13 13 13 13 12 12 13 12 11 9 10 10 7 7 8 8 7 7
5 3 2 2 1 3 4 4 1 1 0 2 1 2 6 6 5 3 3 5 3 1 1 2 3 7 7 8 10 7 7 6 8 8 5 4 6 6 7 6 8 11 11 13 17 17 16 16 16 18 19 19 20 19 19 18 19 19 19 19 20 21 21 20 19 18 17 17 17 17 17 17 17 18 18 17 14 15 15 15 16 16 15 14 13 13 12 11 10 9 8 6 6 6 6 5 4
4 4 1 2 2 4 3 3 4 4 3 2 2 8 9 6 4 4 4 5 5 2 4 5 4 7 8 9 11 11 12 12 10 9 6 7 8 9 9 7 8 10 12 13 16 17 16 17 17 18 19 20 21 21 20 19 19 19 19 19 19 20 20 20 20 19 18 18 18 19 18 18 18 19 19 17 16 17 16 15 15 14 14 13 12 12 11 10 9 8 6 5 5 4 3 2 2
3 3 0 1 3 3 4 5 5 5 6 5 3 10 7 4 1 4 4 5 7 7 6 6 1 2 4 7 9 10 10 11 9 8 8 9 10 11 10 8 9 10 12 13 16 17 17 17 18 18 19 21 22 22 21 20 20 20 20 19 19 19 19 20 20 19 19 19 20 20 19 19 20 20 19 18 18 17 15 13 13 13 12 12 11 10 9 8 8 7 6 5 4 3 2 2 2
3 5 2 2 4 4 5 4 5 5 5 2 5 6 4 2 2 4 6 7 10 9 3 2 1 5 4 9 12 12 13 12 9 7 8 10 12 13 12 9 8 10 12 14 16 17 17 18 19 19 19 21 23 23 23 22 21 21 21 20 20 19 19 20 20 20 19 19 20 21 21 21 22 21 20 20 18 16 14 12 12 13 12 11 10 10 9 8 7 7 6 5 4 3 3 3 3
3 6 3 2 4 4 4 4 4 4 4 2 6 5 4 1 2 3 5 7 9 5 4 5 6 5 6 11 9 8 11 11 8 9 10 13 16 16 14 12 10 10 12 14 15 17 19 19 19 20 20 22 23 24 24 23 22 22 22 22 21 20 20 20 21 21 21 21 21 22 23 23 22 21 20 19 17 15 14 13 12 12 12 11 10 10 9 8 7 7 6 5 4 4 4 4 4
3 6 3 2 4 5 4 4 3 3 3 2 5 4 2 4 5 4 6 6 7 6 10 14 9 4 4 6 4 5 8 9 10 14 16 18 20 18 16 15 13 12 13 14 15 17 19 20 20 21 22 22 24 25 25 24 23 23 23 23 22 22 21 21 22 22 23 23 23 23 23 22 22 21 20 18 16 15 14 14 13 12 11 11 10 10 9 8 8 8 6 5 5 4 4 4 4
2 4 2 2 3 5 3 3 2 2 3 3 4 1 1 5 4 6 7 7 11 15 17 13 10 10 11 14 15 16 17 17 20 21 22 22 21 20 18 18 17 16 15 15 16 17 19 21 22 22 22 23 24 25 25 25 24 24 24 24 24 23 22 21 22 24 24 24 24 24 23 23 22 22 21 19 17 15 15 14 13 12 12 12 11 11 10 10 9 9 7 6 6 6 6 5 4
1 1 1 2 4 4 4 3 1 1 4 2 2 2 2 4 3 6 8 10 14 19 21 18 16 17 21 24 22 21 22 21 22 22 22 23 21 21 20 19 19 18 18 17 17 18 19 21 23 23 23 23 24 25 26 26 25 25 25 25 25 24 24 23 23 25 26 25 25 25 24 24 23 23 22 20 18 16 15 15 14 13 13 13 13 12 12 11 11 10 9 8 8 8 7 6 5
2 1 2 4 5 4 3 4 5 4 5 5 6 10 7 4 5 4 5 9 13 18 23 24 20 20 24 26 24 23 21 18 18 19 20 21 22 22 22 21 21 20 19 19 19 19 20 21 22 24 24 24 24 25 26 26 26 26 27 26 26 26 25 25 25 26 27 27 26 26 25 25 24 23 22 21 19 17 16 16 15 14 14 15 14 14 13 12 12 11 10 10 10 9 8 7 7
5 2 3 4 4 6 8 9 9 6 6 10 13 14 10 8 11 8 4 8 12 13 19 23 22 21 22 22 22 24 22 18 19 20 21 22 23 24 24 24 23 21 21 19 19 20 21 21 22 24 25 25 25 26 26 26 26 27 28 28 28 27 27 27 27 27 28 28 28 27 26 25 25 24 23 22 20 18 17 17 16 16 16 16 15 15 15 14 13 13 12 11 11 10 9 8 8
8 6 3 5 6 7 11 13 12 10 10 11 11 12 11 12 15 12 8 10 10 11 16 18 21 22 19 18 17 18 18 18 21 22 23 24 26 26 26 25 25 24 22 20 19 19 21 22 23 23 25 26 27 27 27 27 27 27 27 28 29 29 29 29 29 29 29 29 28 28 27 27 26 25 24 23 22 20 18 18 18 17 18 18 17 17 16 16 15 14 13 13 13 11 10 9 9
7 7 4 6 7 7 11 17 17 13 10 8 11 12 12 15 16 14 11 8 7 13 18 17 22 25 23 23 21 19 18 18 21 24 26 27 27 26 25 24 24 24 23 23 21 19 20 21 22 23 25 28 29 29 29 29 28 28 27 27 29 30 31 31 31 31 30 30 30 29 28 28 27 27 26 25 24 22 20 19 19 19 20 20 19 19 18 18 17 15 14 15 14 12 11 11 10
5 7 9 11 10 8 12 18 15 10 8 9 12 10 11 15 15 15 11 7 9 16 21 22 27 31 29 28 26 26 25 23 23 25 29 28 26 25 22 21 20 21 23 24 23 21 19 19 21 23 25 27 29 30 30 30 30 30 30 29 28 29 31 32 33 33 32 32 31 30 30 29 29 29 28 26 26 23 21 21 21 21 22 21 21 20 20 19 18 16 16 16 15 14 13 11 10
7 7 12 15 14 11 15 18 13 10 9 10 12 12 15 15 15 19 15 15 21 24 25 27 32 34 33 30 27 27 27 26 24 25 29 27 26 24 21 20 18 18 21 23 24 23 21 19 19 22 24 27 29 30 31 31 32 32 32 31 30 28 29 31 34 34 34 33 33 32 31 31 31 30 30 28 27 25 23 23 23 23 24 23 22 22 21 20 19 18 18 17 16 15 14 12 11
8 6 8 14 17 18 20 20 16 13 13 15 16 15 16 14 15 21 20 23 29 29 28 30 33 33 32 31 28 26 26 26 26 25 26 26 25 23 20 18 17 16 19 22 22 23 23 21 20 21 23 25 28 30 32 32 33 33 34 33 33 31 29 30 32 33 33 34 34 34 33 33 32 31 31 30 28 26 25 24 24 25 26 25 23 23 23 21 20 20 20 19 18 16 14 13 13
9 7 8 13 16 18 18 18 17 16 18 19 15 14 18 19 18 22 26 29 32 31 30 30 30 30 29 29 27 25 25 25 26 26 25 25 23 20 19 18 17 17 19 19 20 22 22 22 22 22 22 23 26 29 31 33 33 34 35 35 35 33 31 30 30 31 32 33 34 34 34 34 33 33 32 30 28 27 26 26 26 27 27 27 25 24 24 23 22 21 21 20 19 17 16 15 14
6 8 9 11 12 15 18 19 21 20 21 19 11 11 18 21 17 19 26 28 27 25 24 23 23 25 25 24 25 24 24 24 25 26 25 24 22 20 20 20 21 22 22 22 22 24 24 23 24 23 22 22 24 27 30 32 33 35 35 36 36 35 34 31 31 32 32 32 33 34 35 35 34 34 33 32 29 27 27 27 28 28 29 29 26 25 25 24 22 22 22 22 20 19 18 17 16
9 11 13 14 15 20 22 22 26 25 23 22 14 10 17 20 10 11 24 26 24 22 21 21 20 22 23 23 24 24 25 25 24 25 25 24 22 22 24 24 24 23 23 24 24 25 26 26 26 25 24 22 23 25 28 30 32 34 35 36 36 36 35 33 33 32 32 32 33 34 35 35 34 34 34 33 31 28 27 28 28 29 30 30 28 27 27 25 23 23 23 23 21 20 19 18 17
10 11 12 16 17 21 24 22 26 22 16 20 15 8 15 16 7 15 29 26 22 24 22 23 22 23 24 24 26 25 25 25 24 24 23 22 21 22 23 23 23 22 22 22 22 22 24 26 26 26 25 24 23 23 25 28 30 33 34 35 36 36 36 35 35 33 33 33 34 35 36 36 35 35 35 34 32 29 28 28 29 30 30 30 29 28 27 26 24 24 25 24 23 22 21 20 19
8 7 7 13 13 15 21 21 25 21 12 13 8 1 9 9 11 25 30 24 22 24 22 22 23 23 24 25 27 27 27 25 23 21 20 20 20 18 18 18 20 21 22 21 21 21 21 23 24 25 25 25 25 24 24 26 28 30 32 34 35 35 36 37 36 35 35 34 34 35 36 36 36 35 35 35 33 31 29 29 31 31 31 31 31 30 28 27 26 26 27 26 25 24 23 22 21
6 6 5 9 9 7 15 17 18 15 7 11 9 1 6 6 15 25 22 19 20 21 21 21 21 24 28 29 28 27 26 25 23 21 19 17 13 10 10 12 15 19 21 20 21 21 20 19 20 22 23 24 25 25 25 25 26 28 30 33 34 35 35 36 37 36 36 36 35 36 37 37 37 36 37 36 34 31 30 31 32 32 32 32 32 31 29 28 28 28 28 28 27 26 25 24 23
6 7 5 5 5 3 11 12 5 3 5 14 10 3 6 5 14 18 14 13 14 16 19 21 25 29 32 31 28 25 23 22 20 14 10 8 6 6 10 12 13 16 18 16 17 18 18 17 16 18 20 21 23 24 25 25 25 26 29 31 33 34 35 35 36 36 36 36 35 35 37 38 37 38 38 38 35 32 31 33 34 33 33 33 33 32 30 30 30 30 30 29 28 28 27 25 24
4 6 4 4 4 4 10 10 6 5 3 11 8 2 6 8 10 12 15 18 18 19 21 25 29 31 32 30 25 23 21 16 11 4 1 5 7 12 16 17 15 14 14 12 12 14 15 16 15 15 16 18 20 22 23 23 24 25 27 29 31 32 34 34 35 35 36 36 35 35 36 37 38 39 39 39 37 35 34 35 36 35 34 34 33 33 32 32 32 32 31 30 29 29 28 27 27
4 4 5 5 6 5 5 4 6 9 3 6 7 4 5 6 8 14 19 23 23 22 25 29 32 32 31 28 25 24 17 8 4 3 2 5 9 14 17 18 17 15 15 14 12 12 12 13 14 13 13 14 15 17 19 21 22 24 25 26 28 30 32 32 33 34 35 35 35 35 35 35 37 39 39 40 40 38 37 37 37 37 36 35 34 34 34 33 33 33 33 32 31 30 30 29 29
3 4 5 5 6 6 4 4 1 4 4 4 8 7 7 7 10 18 21 23 22 20 25 29 30 28 27 27 24 16 6 8 7 6 7 9 11 14 14 15 16 15 17 18 15 12 10 10 12 12 11 11 12 13 16 18 19 22 24 24 25 26 28 29 29 31 33 34 34 34 35 35 36 38 39 39 40 40 39 39 39 38 38 37 36 35 35 35 35 35 34 33 32 32 32 31 30
5 5 5 6 6 7 7 6 7 6 4 7 7 8 9 7 8 15 21 23 22 21 25 28 26 26 27 24 11 7 12 14 12 9 8 10 10 9 8 8 8 8 10 13 13 11 10 9 9 10 9 9 10 11 13 15 16 19 21 23 23 24 26 27 27 29 30 31 31 32 34 35 36 37 37 37 38 39 40 40 40 39 40 40 38 36 36 37 37 37 36 35 34 33 33 32 31
9 9 7 8 7 6 8 9 8 9 9 9 8 9 9 7 7 13 22 26 24 25 24 22 27 28 22 8 11 17 17 18 14 10 8 7 6 6 6 7 6 5 4 4 7 9 8 7 6 6 6 5 5 7 10 11 12 14 16 19 21 22 24 25 26 27 28 29 29 30 32 34 34 34 34 34 36 38 39 40 41 40 41 41 40 39 38 38 38 38 37 36 36 35 35 34 33
10 9 8 8 7 7 8 9 10 8 7 6 6 8 9 9 9 13 25 27 20 20 18 20 26 18 3 12 18 19 20 18 12 11 12 10 11 12 13 13 12 11 8 4 0 4 5 6 5 2 3 2 1 2 5 7 7 9 10 13 15 17 20 22 24 26 26 27 27 28 30 32 32 32 33 33 33 35 37 39 41 41 42 42 42 41 39 38 37 38 38 38 38 38 37 37 36
9 7 7 7 6 8 8 10 11 5 3 4 6 8 8 9 12 17 24 19 12 17 17 15 11 5 14 17 20 21 19 15 12 15 17 17 17 18 19 20 20 19 17 13 9 5 2 1 2 1 1 2 1 0 2 4 4 5 6 7 9 11 13 17 19 21 23 25 27 28 29 30 32 33 34 33 30 31 33 36 39 41 42 43 42 41 40 39 38 39 39 39 39 39 39 38 38
7 6 6 6 6 7 8 9 8 2 1 4 7 9 7 11 16 17 19 13 14 21 11 3 11 18 18 19 21 20 18 16 17 19 20 21 22 23 24 25 26 26 25 23 19 15 12 9 5 2 2 1 0 2 2 3 3 4 4 5 7 8 9 12 15 16 18 21 24 25 26 28 31 31 31 30 29 30 32 34 37 39 41 43 43 42 42 41 40 40 40 40 41 40 39 39 40
4 4 4 5 6 6 5 4 5 6 4 7 10 9 6 11 15 14 16 15 15 10 9 19 20 23 22 22 21 19 19 18 19 21 23 24 25 26 28 29 29 30 30 29 28 26 23 19 15 11 8 5 4 2 1 3 4 4 5 5 7 8 9 11 13 13 15 16 19 21 23 24 26 27 26 26 27 29 31 33 35 38 40 42 42 42 43 43 42 42 42 41 42 43 42 41 41
4 5 5 7 7 7 5 4 7 7 6 6 6 6 5 8 9 7 7 9 6 8 23 23 21 23 23 22 21 20 19 18 20 22 24 26 27 28 29 30 31 32 33 33 32 32 30 27 24 21 17 13 11 8 5 4 4 4 3 3 4 5 6 8 9 11 12 13 14 16 17 19 20 21 22 23 24 25 27 29 32 35 38 40 41 42 43 43 43 43 43 43 44 44 44 44 43
5 6 6 7 6 6 5 6 6 4 4 2 3 4 4 4 5 6 5 7 3 12 20 17 20 21 20 22 20 19 19 19 20 22 24 26 27 28 29 30 31 32 33 33 32 32 31 30 29 28 25 22 19 16 12 9 7 6 5 4 3 3 3 4 6 8 10 11 13 13 14 14 15 16 17 18 19 20 22 24 27 31 34 38 40 41 41 42 43 44 44 44 44 44 45 45 45
4 3 3 4 3 4 5 5 3 1 4 3 1 3 5 4 4 8 9 8 0 11 12 12 18 19 19 20 18 18 19 19 20 22 24 26 26 28 29 30 30 31 31 30 30 31 30 30 30 30 29 27 25 22 19 16 13 10 8 7 5 4 3 2 2 5 9 11 13 14 14 14 14 13 14 14 15 15 16 18 22 26 30 34 37 39 41 41 42 43 44 45 45 44 45 47 47
3 2 3 5 4 4 4 3 2 4 4 5 5 5 5 5 5 10 12 5 7 10 8 9 14 17 19 18 17 18 18 18 20 22 23 25 26 27 27 28 28 28 28 28 28 29 29 29 29 29 29 29 28 26 24 21 18 14 12 11 8 7 5 3 3 4 8 10 11 12 13 13 13 13 12 12 12 13 13 14 16 20 25 30 34 37 39 40 41 42 43 44 44 44 46 47 48
2 0 2 3 3 3 3 3 4 4 4 5 5 6 3 5 5 9 8 6 9 8 8 7 10 17 19 16 15 15 17 19 20 21 22 23 25 25 25 26 26 26 26 27 27 27 27 27 27 27 28 29 28 27 26 24 21 18 16 15 12 10 8 6 5 4 6 9 11 12 13 14 14 13 12 11 11 12 12 12 13 15 19 24 29 33 36 38 39 41 42 43 44 45 46 46 47
1 1 2 2 3 4 4 4 3 4 3 5 5 6 3 4 6 5 1 6 5 6 7 6 10 16 17 16 16 14 15 17 19 21 21 21 22 23 22 22 23 24 24 24 25 25 25 25 26 26 27 27 27 27 26 25 23 21 19 18 17 15 12 9 8 6 6 8 10 12 14 15 15 15 14 12 11 11 12 12 12 13 15 18 23 28 32 35 37 39 41 42 44 44 45 46 47
1 1 2 4 5 4 3 3 1 2 3 5 7 8 7 3 5 2 3 3 8 8 6 6 10 15 16 15 15 14 15 16 18 20 20 20 20 20 20 20 21 21 21 22 22 22 23 23 24 25 26 26 26 26 25 25 24 23 22 22 21 20 18 15 13 11 9 9 9 9 11 13 14 15 16 15 13 12 12 12 12 12 12 14 18 22 27 31 34 37 39 41 43 44 44 44 46
3 1 2 4 4 1 1 1 1 1 4 4 4 1 6 3 4 2 4 2 10 11 9 10 10 14 16 14 14 14 14 15 16 18 18 19 18 18 18 19 19 19 20 21 21 21 20 21 22 23 24 25 25 25 25 24 23 23 23 23 23 23 22 21 19 17 15 14 12 11 11 12 12 13 15 17 17 16 14 12 12 12 12 12 14 17 20 24 29 33 36 39 41 43 43 43 44
4 2 0 2 3 1 1 1 1 3 4 3 1 3 0 4 5 7 9 4 4 7 11 14 14 17 18 15 14 14 14 15 15 16 17 17 17 17 16 17 17 17 19 19 19 18 18 19 20 21 22 22 22 23 22 23 23 23 24 24 24 24 24 24 23 22 21 19 17 15 14 13 13 12 13 15 18 20 19 16 14 13 13 13 13 14 15 18 23 27 32 36 39 42 43 44 45
4 4 3 2 1 2 3 3 2 3 3 3 1 2 3 4 5 6 4 4 11 15 18 19 20 20 19 15 15 14 14 15 15 16 16 16 16 15 15 15 15 16 16 17 16 15 15 17 19 20 20 20 20 20 20 20 22 23 23 23 23 23 24 24 24 24 24 23 22 21 19 17 16 15 14 14 15 18 21 20 18 16 15 14 14 14 15 16 18 22 26 31 35 39 41 43 44
6 3 4 3 2 3 4 3 3 4 4 4 2 2 2 2 1 2 9 13 17 22 22 22 22 21 19 16 15 14 13 13 14 15 14 14 15 14 15 15 15 15 15 14 13 13 13 16 17 18 18 18 18 18 18 19 20 21 22 22 23 23 23 23 23 23 23 24 24 23 22 21 19 18 16 16 15 16 19 21 21 19 16 15 15 15 16 16 17 18 21 24 29 33 38 41 42
2 1 3 1 2 3 3 3 4 4 5 6 4 4 4 2 6 4 9 14 15 20 20 21 20 17 17 16 14 12 12 12 12 13 13 13 13 12 13 13 13 13 13 13 12 12 14 16 17 17 17 16 16 17 18 18 19 19 19 20 22 22 22 22 22 22 22 22 23 22 22 22 21 20 18 17 16 16 17 19 21 20 18 16 15 15 16 16 16 17 18 20 23 26 31 37 39
1 2 2 3 2 3 1 4 5 4 5 6 4 5 5 3 7 4 9 11 9 11 14 16 16 15 15 14 12 11 11 11 11 10 10 10 10 10 11 10 11 11 11 11 11 12 14 15 16 15 15 15 16 16 17 17 17 17 18 19 20 20 21 22 22 22 23 23 22 21 21 20 20 19 18 18 17 16 16 17 19 20 19 18 16 16 16 16 17 18 18 19 19 20 24 29 33
2 1 2 2 1 1 1 3 2 4 5 5 5 8 7 4 4 1 8 9 8 7 9 12 14 14 14 12 11 10 9 10 9 8 8 7 7 8 8 8 9 9 10 10 11 13 14 14 14 14 15 16 17 17 17 17 17 17 18 18 18 18 19 20 21 23 23 23 22 21 20 20 19 19 18 17 17 17 17 17 17 17 18 18 18 17 17 17 18 19 19 20 19 19 22 25 27
3 2 1 2 0 1 1 1 1 4 6 4 5 8 8 5 3 3 2 7 9 8 7 9 10 12 12 10 10 9 8 7 6 6 5 5 6 6 6 7 7 7 8 9 10 11 12 13 14 16 17 18 18 18 18 18 18 18 18 17 16 16 16 17 18 20 21 22 22 21 20 20 20 19 19 19 18 18 18 18 18 18 17 16 16 17 17 18 18 19 20 21 21 20 22 23 24
3 3 2 1 2 3 3 2 2 5 6 5 5 7 6 3 3 6 6 5 8 7 6 6 7 10 10 9 9 8 6 5 4 4 3 3 3 3 3 4 4 6 7 8 9 10 11 13 15 16 18 18 18 18 19 19 19 18 17 16 15 15 15 15 15 16 17 18 20 20 20 20 20 20 21 20 20 20 19 19 19 19 18 18 17 16 15 16 18 19 20 21 21 21 22 24 24
2 2 2 1 1 1 2 2 3 4 5 5 6 7 4 1 4 6 8 8 7 7 7 5 6 8 9 9 8 6 5 5 4 4 3 2 1 1 2 3 4 6 7 8 10 11 13 15 17 18 18 18 19 19 19 19 19 19 18 17 17 16 16 15 15 14 15 16 17 18 19 19 20 21 21 21 21 21 21 20 19 19 19 19 19 19 17 16 17 18 19 20 21 21 23 24 24
1 2 3 4 3 2 3 5 4 4 4 4 6 8 4 0 2 4 6 5 6 9 9 6 7 10 10 8 6 5 5 5 5 5 4 3 1 1 2 4 5 6 8 9 11 13 15 17 18 19 19 19 19 19 19 19 19 19 19 19 19 18 18 17 16 15 15 15 16 17 18 19 20 20 21 22 22 22 21 21 21 20 19 19 19 19 19 19 19 18 18 19 19 21 22 23 24
Wind_Direction
302 305 310 321 331 336 341 341 291 229 214 245 262 46 92 55 184 340 26 53 77 60 19 350 304 302 298 305 301 300 293 271 276 328 276 212 344 329 351 333 301 311 283 279 215 215 211 209 210 211 214 213 216 217 219 218 213 209 206 203 200 197 192 190 189 191 195 199 202 207 213 218 233 243 241 227 222 220 204 206 196 155 142 130 134 160 158 181 206 216 237 240 231 233 248 269 217
304 307 319 332 344 340 324 342 317 273 260 251 19 48 63 247 72 45 35 32 45 16 342 335 306 278 263 279 279 286 294 256 258 337 352 336 343 331 6 303 263 271 274 292 228 216 217 215 213 213 214 214 216 219 219 217 213 208 205 203 201 199 194 193 194 198 203 206 211 216 223 240 257 253 233 214 211 200 181 191 188 155 147 146 160 183 177 198 221 230 248 250 236 248 268 270 266
316 325 356 351 338 308 289 307 252 305 315 329 45 56 21 7 47 44 42 55 43 336 327 324 300 278 254 247 270 272 288 321 284 341 22 342 331 326 339 288 245 247 252 278 244 220 220 219 218 217 216 215 215 218 219 216 213 208 206 204 203 202 198 198 201 205 208 212 219 224 231 252 254 241 221 209 210 204 191 180 175 165 166 172 174 193 203 218 237 249 264 263 235 245 263 271 276
337 357 64 15 302 264 254 265 238 311 302 313 45 89 68 40 39 45 34 50 75 317 324 315 287 260 287 253 306 301 292 10 325 302 29 272 298 307 307 282 244 239 239 251 248 227 224 221 221 222 221 218 215 217 217 216 214 210 207 206 205 204 204 205 208 210 213 216 221 225 225 229 226 224 222 220 222 215 200 175 170 172 174 188 198 202 208 231 251 263 275 270 248 238 244 261 271
34 47 73 96 285 277 286 311 275 273 272 320 15 54 50 32 30 44 8 2 171 328 295 294 283 250 293 269 286 297 335 13 297 292 280 281 297 297 287 273 244 235 237 240 241 232 229 224 221 224 226 225 221 218 218 217 215 212 209 209 208 208 209 210 213 215 215 214 215 221 218 218 216 219 224 233 239 226 200 176 177 181 185 202 214 218 226 244 258 269 277 274 261 246 243 250 259
49 27 29 77 273 299 314 283 274 258 268 30 4 354 16 9 23 21 339 337 138 176 279 246 286 302 286 257 245 245 287 305 301 297 279 291 298 294 283 266 248 237 236 236 239 231 230 228 222 223 226 229 227 224 221 219 216 214 212 211 212 212 214 216 218 218 216 212 213 219 216 216 216 218 224 237 248 239 214 197 200 203 205 214 224 233 244 255 264 270 274 276 269 258 256 256 261
57 348 298 268 260 274 279 267 275 279 346 72 14 344 348 351 18 7 330 352 116 164 166 191 287 309 283 253 242 240 247 283 309 297 286 302 294 296 280 260 251 241 237 232 238 233 229 230 225 223 224 228 229 229 226 222 219 216 215 214 216 217 217 220 220 217 215 213 215 217 214 214 217 219 226 240 250 250 240 226 226 228 228 232 238 247 255 264 269 272 276 277 273 264 262 265 268
53 328 282 294 269 189 232 265 262 263 264 83 63 338 326 349 7 357 324 325 267 215 177 199 247 281 277 280 249 239 239 276 308 291 304 319 305 307 282 261 247 241 241 229 233 235 231 229 227 226 225 228 229 230 228 225 223 221 219 216 218 221 220 221 219 216 216 216 216 216 215 215 217 222 231 243 251 259 264 256 250 246 247 251 252 254 256 263 270 275 279 280 274 263 262 266 270
1 323 306 282 295 239 237 249 245 237 260 52 43 327 342 353 350 354 315 303 289 308 228 174 148 209 303 313 292 266 235 248 294 289 297 322 330 326 295 268 243 240 243 230 232 236 233 231 228 228 226 228 230 230 229 226 226 226 224 221 222 224 224 223 221 219 219 217 215 214 214 215 219 226 236 245 251 264 271 267 264 259 258 259 259 260 258 259 263 272 280 281 269 262 262 267 271
294 269 309 307 304 274 257 250 272 341 7 76 91 7 29 23 3 344 304 300 304 333 245 217 212 237 278 304 294 274 248 265 292 287 274 300 324 325 314 284 249 240 242 236 234 237 235 234 232 229 227 228 230 231 231 228 227 229 228 226 226 228 227 227 225 223 221 217 214 214 213 215 221 228 237 247 256 266 270 268 267 262 258 257 255 258 259 257 256 264 277 277 263 260 261 266 270
276 222 297 331 290 269 286 342 353 341 339 330 66 76 65 50 6 305 266 276 287 277 234 232 230 244 263 282 281 271 264 268 281 287 271 285 309 315 316 297 269 247 242 241 238 241 237 236 236 232 229 228 231 232 232 229 228 229 230 230 230 231 230 229 228 223 220 216 214 214 214 217 224 230 238 248 258 265 267 268 266 257 251 249 247 248 250 251 252 258 268 262 250 248 245 250 250
292 253 190 289 290 287 328 355 328 323 327 312 51 75 73 77 358 290 301 315 308 308 273 221 207 315 284 279 283 280 267 262 273 286 271 280 302 311 312 297 286 264 246 244 242 244 240 237 238 236 232 230 232 233 233 230 229 230 230 231 231 232 231 229 226 222 219 216 213 215 217 222 228 233 240 250 258 265 267 262 258 254 246 242 239 239 239 242 246 247 243 230 217 206 205 218 232
291 319 352 284 297 306 323 324 303 311 310 328 92 87 73 68 286 305 336 330 305 305 319 159 359 347 292 276 283 279 270 270 273 269 270 286 300 308 306 290 282 274 258 250 246 245 244 240 238 238 235 232 233 234 234 232 230 231 231 232 233 233 231 228 225 221 218 216 213 215 221 226 231 235 242 252 260 266 263 251 248 253 250 241 235 233 232 232 233 227 217 205 194 190 200 213 227
292 341 350 285 311 304 297 279 293 313 299 44 100 118 92 18 258 309 316 307 300 309 349 307 305 327 286 278 283 270 262 268 269 265 279 292 301 305 300 290 279 273 267 259 252 247 246 244 240 238 236 234 235 235 235 234 231 231 232 232 233 234 233 229 224 220 216 217 216 216 223 230 236 242 247 254 260 261 256 247 242 246 249 243 234 231 227 225 222 215 208 200 198 202 211 217 225
300 345 330 264 306 291 269 251 288 321 296 51 106 123 82 277 228 231 270 276 286 290 308 302 286 272 271 281 303 318 293 280 280 282 290 295 299 300 294 290 283 272 268 264 258 251 248 247 244 240 237 236 237 237 236 235 233 232 233 233 233 234 234 229 222 219 216 219 221 222 227 233 241 248 254 258 260 257 252 247 241 239 242 240 233 227 222 218 214 213 209 205 211 217 224 226 231
293 337 321 253 282 284 276 261 270 271 296 76 110 147 343 299 236 210 258 259 268 283 293 288 266 262 265 270 277 289 293 287 286 288 291 293 294 294 290 287 283 275 269 264 260 255 251 249 248 246 242 240 238 238 238 237 234 233 233 233 233 234 232 228 223 220 218 220 225 228 232 237 242 249 254 258 259 255 247 243 238 236 236 234 229 223 219 214 212 212 209 210 217 222 227 230 234
281 337 257 254 263 263 270 262 247 282 317 31 140 272 350 325 271 223 255 256 267 285 289 281 270 268 269 276 279 279 285 286 287 288 288 289 289 289 288 285 282 279 273 267 263 258 255 252 250 250 248 246 242 240 239 238 236 234 233 232 232 233 231 229 227 223 221 223 227 230 234 238 243 248 252 255 255 249 240 236 233 231 231 230 225 220 218 215 214 213 210 210 216 221 224 227 232
185 182 214 239 242 252 305 324 321 338 334 331 324 323 327 320 302 262 253 258 271 282 285 287 284 275 274 283 282 273 281 288 287 289 287 287 288 290 292 290 285 281 278 272 267 263 259 256 253 252 252 252 249 245 241 240 238 235 233 232 230 230 230 230 230 227 226 227 230 234 237 240 244 248 251 252 252 245 236 232 229 228 228 227 223 221 220 218 217 215 212 211 215 220 221 224 230
207 226 229 238 243 275 305 308 308 326 324 316 314 315 319 319 315 305 275 276 285 285 283 289 290 285 284 287 281 267 272 282 283 285 286 288 291 293 296 296 292 286 281 277 273 269 264 259 256 254 254 254 253 250 246 242 241 237 234 232 231 229 228 229 230 230 230 231 234 237 239 242 246 249 252 252 250 244 237 231 227 226 226 226 223 222 222 220 220 216 212 212 216 219 219 223 229
214 220 240 246 252 280 292 298 304 307 308 310 305 309 318 310 305 295 279 280 280 273 276 285 287 286 291 300 301 280 273 282 283 282 283 288 291 293 295 295 295 293 289 284 277 269 264 260 257 254 253 253 253 252 249 245 243 242 237 233 232 229 228 227 228 229 231 233 234 237 240 243 246 249 251 251 248 242 236 232 227 224 225 225 223 222 222 220 219 217 212 213 217 218 218 222 226
206 202 223 257 276 296 293 300 305 304 310 313 302 308 310 300 297 284 275 281 265 258 267 276 281 286 292 299 304 293 283 286 286 283 282 286 289 292 294 293 292 292 291 286 279 271 264 261 258 254 251 250 251 251 250 248 246 245 242 238 234 231 229 228 227 228 229 232 234 235 238 241 245 247 247 248 246 241 235 232 228 226 226 225 223 223 222 221 220 217 214 215 218 218 219 221 223
225 234 246 259 274 284 280 290 299 302 307 300 293 295 299 300 293 279 269 258 254 264 273 279 280 285 290 291 293 290 284 281 279 278 279 284 289 292 294 293 289 285 284 283 282 279 270 262 258 255 251 250 249 250 250 249 247 246 247 245 241 235 231 230 229 228 229 230 233 234 236 238 242 244 244 244 244 241 236 233 229 228 228 228 225 225 224 222 220 216 216 218 217 218 220 221 224
228 247 250 260 269 274 279 287 293 300 301 287 282 284 292 295 286 279 268 253 263 270 275 279 281 284 288 288 287 285 284 281 275 271 275 281 286 290 293 292 289 283 280 281 283 283 279 271 262 256 252 250 249 249 249 248 247 246 247 248 247 243 237 233 231 231 231 231 232 234 235 237 239 242 242 241 241 240 236 233 231 229 230 230 228 227 226 224 220 216 217 219 217 218 220 221 224
246 247 256 271 277 277 281 286 285 290 289 279 279 283 282 278 281 284 273 266 272 274 274 277 280 283 285 285 283 281 280 280 277 274 276 279 282 287 289 288 289 284 277 281 286 285 284 281 273 264 257 253 251 249 248 248 247 246 246 246 247 247 244 239 236 235 233 232 233 235 237 238 238 239 241 240 239 239 235 233 231 230 231 232 229 228 228 226 222 218 218 220 218 218 219 221 223
260 263 270 274 275 277 284 288 283 278 277 275 272 268 268 269 278 282 277 276 277 276 276 275 276 278 278 280 280 279 277 276 278 278 278 280 283 283 284 287 290 286 279 284 289 286 287 287 283 273 265 259 254 252 250 249 248 247 246 246 247 247 246 243 242 241 238 235 235 236 238 239 238 239 241 241 239 238 235 232 232 231 231 232 230 228 230 228 224 220 220 222 220 219 220 222 223
264 286 303 302 297 294 294 291 285 277 274 271 260 253 263 271 280 279 274 277 281 280 277 275 276 277 276 276 277 278 277 275 276 279 281 282 282 281 283 287 288 288 287 287 285 283 286 286 285 281 276 268 258 254 252 250 249 248 247 247 248 248 247 244 243 244 244 241 239 239 239 240 240 239 241 243 241 238 234 233 233 232 231 233 232 229 231 231 226 223 223 224 222 220 222 223 224
298 316 317 310 301 292 284 278 276 273 270 265 254 251 263 269 276 273 275 281 282 278 275 275 275 274 274 276 279 280 279 277 276 278 280 278 278 282 286 288 288 289 288 284 282 282 282 280 279 280 280 275 266 259 255 252 251 250 250 249 249 248 247 244 243 245 246 245 243 242 242 242 241 240 242 243 243 239 235 234 235 235 233 234 234 230 231 233 228 225 226 227 225 223 224 225 225
313 334 319 296 288 284 277 270 268 265 263 255 243 246 268 272 258 253 272 286 284 278 278 278 274 271 271 276 282 285 282 281 281 278 276 275 278 282 285 288 290 293 291 286 284 281 277 275 274 273 273 274 271 266 260 255 253 252 252 251 251 250 248 245 244 245 246 246 245 244 243 244 243 242 242 244 245 241 236 236 237 238 237 236 236 233 232 233 229 225 227 228 226 226 226 227 228
322 330 307 286 282 274 269 265 259 257 252 235 208 213 268 258 246 254 268 281 280 272 268 270 270 268 269 276 284 287 286 286 285 280 277 281 287 284 283 287 291 293 293 291 287 280 275 274 273 271 269 268 267 267 264 260 256 253 252 252 252 251 250 248 247 247 247 247 246 245 244 245 245 244 243 246 246 242 239 239 240 240 240 239 239 237 234 232 229 227 228 228 227 227 228 228 229
295 272 261 280 289 271 269 267 251 249 230 180 148 134 250 240 256 266 277 280 278 271 264 269 271 271 275 281 286 289 291 290 288 286 282 285 295 297 296 300 296 289 287 287 284 280 277 275 273 271 268 266 265 264 263 261 258 255 252 250 250 250 249 250 249 248 247 247 248 248 246 245 246 246 246 247 247 244 242 242 243 242 242 242 241 240 236 232 230 229 229 230 229 229 230 230 232
269 263 248 254 277 273 277 277 217 196 161 150 140 242 245 262 270 279 300 297 292 283 276 278 276 276 279 283 289 292 294 297 298 297 281 267 266 275 282 284 280 278 280 282 280 278 278 275 272 270 268 267 265 263 261 260 258 256 253 250 248 248 248 248 248 247 246 247 248 248 248 246 246 246 248 249 248 246 246 246 245 244 244 243 242 241 239 234 232 232 232 232 230 231 232 231 233
256 267 270 228 246 261 278 280 169 171 193 153 142 244 239 245 270 298 309 299 296 290 284 282 278 278 281 286 293 296 298 304 310 327 238 239 251 263 267 266 263 266 273 276 272 269 272 273 271 269 267 265 265 263 261 260 258 255 252 250 248 248 247 246 246 245 246 246 247 248 249 247 246 247 249 250 249 249 250 249 248 247 246 245 243 242 240 236 233 233 233 233 232 232 233 232 232
239 233 259 248 253 258 276 296 175 176 171 172 188 227 246 242 271 284 282 280 279 277 277 275 274 277 281 288 293 297 304 318 343 11 319 278 273 274 271 269 268 264 260 261 262 258 262 270 273 271 266 265 265 263 260 257 256 254 252 250 247 247 246 245 245 244 245 246 247 249 248 247 246 247 248 250 251 251 252 251 250 248 247 247 245 244 242 238 235 234 233 233 233 234 234 233 234
248 232 252 255 268 284 294 333 296 181 148 213 226 227 247 247 261 269 270 277 275 267 268 270 273 278 282 287 293 303 347 64 45 8 332 310 300 291 284 280 275 266 255 250 250 244 241 255 268 272 270 270 267 262 259 254 251 250 248 247 245 245 245 245 245 244 244 245 247 249 250 249 249 248 248 250 252 253 251 251 250 249 248 248 246 245 243 240 237 235 234 234 234 234 236 235 235
270 271 278 283 285 301 295 294 315 310 271 263 259 250 261 263 274 283 284 285 278 268 268 273 282 285 285 292 314 47 76 68 42 15 343 324 319 313 307 302 292 281 264 250 241 232 222 228 250 266 270 276 274 265 259 254 248 245 244 245 245 244 244 245 244 243 242 243 246 249 251 251 250 250 250 251 252 252 251 250 249 248 248 247 247 246 244 242 238 236 234 235 235 236 237 237 237
266 270 274 283 280 286 286 279 286 292 283 278 278 277 289 298 294 289 283 277 270 267 269 276 282 283 287 315 71 83 76 63 48 32 18 8 14 19 19 14 8 2 328 272 238 227 219 209 222 263 276 283 289 279 268 262 257 251 249 249 249 248 248 247 246 245 244 244 247 249 251 252 252 251 252 253 253 252 251 250 248 248 248 247 246 246 245 244 242 239 237 236 236 235 235 235 236
266 272 270 276 280 280 282 285 285 291 291 283 290 293 299 303 292 278 275 273 271 272 271 269 273 282 355 83 88 86 78 70 61 57 58 62 64 63 61 57 53 51 48 44 213 214 214 204 194 243 297 314 6 315 289 284 280 270 263 260 258 257 255 253 251 249 248 247 248 248 250 253 253 254 255 256 255 252 250 249 247 248 249 248 248 248 247 247 246 243 240 237 237 236 235 234 234
284 288 288 288 283 280 282 284 284 297 305 290 306 298 294 296 285 275 274 276 274 268 265 265 274 49 82 94 95 89 82 77 77 74 69 68 70 71 68 66 64 61 59 57 55 62 68 198 182 165 316 353 60 109 289 304 303 289 283 278 274 269 262 258 256 255 252 248 248 250 252 254 256 259 261 261 259 254 251 250 249 250 251 251 250 249 248 247 246 244 241 238 237 237 237 237 236
287 291 297 293 278 284 284 277 286 353 17 309 310 297 295 288 276 274 275 272 267 266 265 73 84 84 83 89 91 86 80 81 81 74 69 69 68 69 69 67 66 65 64 63 61 60 57 53 51 44 17 12 105 179 205 251 262 253 253 253 261 265 260 260 261 261 259 254 254 257 258 259 262 266 269 270 267 261 256 254 254 253 253 253 251 250 249 247 245 244 243 240 238 237 236 237 239
261 264 276 276 274 285 276 281 335 357 320 292 294 289 283 277 271 272 273 263 260 262 89 87 91 91 88 89 86 81 80 80 79 75 74 72 70 69 68 67 66 66 66 65 63 62 60 57 53 41 31 19 359 353 227 246 252 244 237 233 249 260 263 268 272 274 272 268 267 267 267 268 270 274 277 276 273 267 263 260 258 256 255 255 253 251 250 249 247 246 245 243 240 237 235 236 238
261 246 246 259 267 270 275 322 345 334 305 292 301 295 256 261 272 280 279 263 253 99 92 89 88 88 87 86 82 83 85 81 79 77 76 75 73 71 70 69 68 66 64 62 61 61 60 60 59 54 47 39 27 22 10 324 301 285 266 239 242 251 261 277 286 288 284 280 279 278 280 281 283 285 285 282 277 273 268 264 261 259 257 256 254 253 252 251 249 248 248 246 243 241 239 239 238
274 251 246 260 276 287 304 340 350 338 305 293 11 336 256 256 303 307 290 271 273 93 96 92 86 85 82 81 81 84 84 81 78 75 75 76 75 73 72 70 68 66 65 63 62 61 60 60 60 59 57 54 50 44 38 21 2 348 331 312 294 280 285 312 320 314 305 302 300 300 300 299 298 298 296 292 287 280 274 268 263 260 259 257 256 254 253 252 250 249 248 247 246 245 243 240 239
266 256 288 305 327 331 329 345 1 324 273 258 343 315 265 257 278 271 264 262 105 89 89 83 83 82 82 84 87 89 85 81 79 76 74 74 73 73 70 67 67 66 65 63 62 60 58 56 56 56 56 56 56 53 51 46 37 27 15 2 349 331 321 314 309 305 305 307 309 311 314 313 310 309 307 304 299 291 283 274 266 261 259 258 257 256 254 253 253 251 250 248 247 246 243 241 240
243 258 356 1 1 340 328 330 270 249 276 276 246 232 260 273 246 247 246 213 103 94 84 79 86 86 84 83 85 91 91 86 82 78 75 72 72 71 69 67 66 65 64 62 60 58 55 53 51 51 51 51 52 51 50 49 47 44 38 32 25 11 355 327 297 287 297 306 308 311 316 317 315 315 315 312 308 302 295 286 276 266 260 257 257 256 255 255 255 254 251 249 247 245 243 242 243
222 95 28 16 359 316 298 280 259 269 303 288 232 191 236 275 248 252 235 142 109 116 116 109 109 102 97 93 88 89 91 90 87 82 79 75 73 72 71 69 66 65 63 59 57 55 53 51 48 48 47 47 47 47 45 44 45 44 41 40 38 31 20 359 341 318 304 310 315 317 319 321 321 320 321 321 317 312 305 298 289 278 268 261 258 257 256 256 255 254 252 250 248 246 244 243 243
203 18 4 331 271 257 262 257 267 299 292 265 237 187 193 289 276 271 134 120 135 141 127 120 115 108 106 107 103 95 89 89 89 87 83 80 77 76 75 73 69 66 62 59 56 53 51 49 46 45 45 44 43 42 40 40 40 40 39 39 38 35 32 21 6 348 325 316 318 321 322 325 326 324 323 323 322 319 313 307 299 291 282 271 262 258 257 256 254 254 253 252 251 249 247 244 243
73 4 346 315 270 231 228 240 239 324 269 256 250 199 179 279 285 268 51 130 160 146 133 130 111 99 97 99 99 96 89 85 86 87 86 84 82 79 78 75 70 66 62 59 56 52 50 49 46 45 44 42 39 37 35 35 37 38 38 37 36 35 33 29 23 13 0 346 333 324 322 324 324 323 323 321 319 317 314 311 306 298 290 281 272 264 260 257 256 254 254 253 252 251 249 247 245
69 32 356 335 302 195 105 297 107 222 251 272 311 213 171 231 282 312 336 225 166 156 153 149 125 105 100 96 91 89 87 84 85 85 84 84 81 76 73 69 65 62 59 56 53 51 50 48 47 44 42 39 35 33 32 33 35 37 37 37 36 35 33 31 29 22 15 6 355 342 329 324 320 319 320 319 318 314 309 307 306 302 295 287 282 275 268 263 259 256 254 253 252 251 250 249 247
101 131 92 350 319 336 328 283 178 224 239 233 343 20 267 244 274 284 287 280 135 129 134 136 127 116 112 108 103 99 94 91 88 85 83 81 78 73 69 64 61 58 55 54 52 49 48 47 46 42 40 38 34 31 30 29 32 33 34 35 35 35 33 32 31 27 24 18 9 360 347 336 327 319 313 312 314 313 311 308 304 304 301 293 286 280 275 270 264 260 256 253 252 252 251 250 249
156 164 159 169 272 299 269 260 260 253 261 246 203 6 302 260 271 277 292 31 64 84 106 118 118 116 113 110 107 103 99 96 91 88 84 80 77 74 70 67 64 61 59 58 55 51 50 48 45 42 40 38 35 34 31 29 30 30 31 32 33 33 32 30 29 27 25 22 17 12 4 354 344 333 319 308 304 304 307 308 306 304 303 298 291 286 281 275 270 265 260 256 254 253 252 252 251
189 187 144 157 205 245 257 267 273 275 285 284 285 310 274 227 246 121 97 81 78 86 97 105 107 111 111 106 101 97 94 92 89 89 85 80 76 71 69 68 65 65 65 64 64 62 57 54 52 48 44 41 38 37 35 34 32 30 28 27 27 28 26 24 22 20 19 16 14 12 8 4 358 350 338 323 309 299 298 300 302 302 300 296 291 287 284 279 276 271 266 261 257 254 253 253 253
219 84 94 151 204 211 261 275 262 280 294 283 264 257 251 255 273 244 109 94 88 91 96 100 101 105 104 98 95 93 91 90 89 88 84 79 76 72 70 67 65 63 62 62 63 61 57 56 56 54 52 49 45 42 39 36 33 28 24 21 19 17 14 11 10 10 10 9 7 5 4 2 360 356 351 342 329 314 303 299 299 299 298 293 287 283 280 277 275 273 270 266 262 258 255 255 255
73 78 153 233 198 148 254 277 264 262 269 267 253 263 280 294 287 288 97 96 94 95 95 94 95 96 93 88 88 90 93 95 93 87 82 79 73 70 68 65 63 61 59 60 59 55 53 52 53 53 51 48 44 41 37 33 29 25 20 17 13 8 5 2 2 2 3 2 1 359 357 355 354 353 352 349 343 334 323 314 308 305 302 297 290 284 279 275 272 271 270 268 266 263 260 258 257
116 199 213 254 336 86 217 257 271 254 251 258 260 275 289 290 285 16 112 121 115 103 99 94 90 90 87 86 91 96 97 99 97 92 88 83 75 67 62 59 56 55 56 55 51 47 46 46 47 45 41 37 34 31 30 28 25 22 19 17 13 7 3 359 357 356 356 356 354 353 352 349 348 348 347 346 345 342 337 330 323 317 312 305 296 290 284 278 274 272 271 269 268 265 263 261 259
124 198 126 104 185 279 241 201 215 246 256 258 249 264 276 268 278 326 123 140 124 110 107 100 94 94 94 101 114 119 120 118 113 107 101 92 82 70 60 56 53 53 51 46 43 40 37 36 34 31 29 28 25 22 21 20 19 19 18 16 12 8 3 357 354 352 349 348 347 347 346 345 344 343 343 343 342 341 339 335 333 329 324 316 305 295 289 284 279 275 272 270 269 267 265 263 261
65 47 11 127 176 214 225 234 237 242 260 269 254 257 266 281 340 7 28 85 107 103 97 89 92 107 117 132 142 143 142 142 135 125 129 120 96 77 65 58 50 47 40 36 34 30 28 26 23 23 23 21 19 17 16 15 15 16 15 13 10 5 1 357 353 349 344 342 340 340 340 340 340 339 339 340 340 339 338 336 335 333 330 326 319 310 299 291 285 280 277 274 271 268 266 265 263
80 59 317 254 216 252 274 270 244 237 257 268 264 258 250 341 10 29 45 54 71 88 92 84 99 129 152 165 166 170 169 171 183 184 186 189 153 73 51 42 33 33 28 27 25 21 19 18 17 18 16 13 13 11 10 10 9 8 7 6 6 3 1 357 352 346 341 337 334 332 332 333 333 333 333 334 335 336 336 335 335 333 330 328 325 321 315 305 295 288 284 280 277 273 269 268 266
166 171 207 228 228 234 267 261 237 230 247 244 256 260 243 148 359 58 76 69 85 109 119 135 157 166 180 191 196 210 210 205 208 207 214 228 257 341 16 27 24 23 21 19 17 14 12 9 7 7 5 4 4 2 2 3 1 1 0 0 1 360 359 358 354 349 343 338 333 331 329 329 329 329 329 329 329 329 330 331 331 331 330 328 325 323 320 314 306 300 294 288 282 278 274 272 270